[[{"header":{"parameterUnit":"m.s-1","parameterCategory":1,"la1":30.2991,"la2":30.254,"lo1":-89.0895,"lo2":-89.0444,"dy":0.0017,"dx":0.0017,"nx":28,"ny":28,"refTime":"2024-08-27T09:00:00:Z","depth":0,"parameterNumber":2,"parameterNumberName":"U-component_of_WINDS"},"data":[0,0,0,0,0,0,0,0,0,0,0,0,0,0,0,0,0,0,0,0,0,0,0,0,0,0,0,0,0,0,0,0,0,0,0,0,0,0,0,0,0,0,0,0,0,0,0,0,0,0,0,0,0,0,0,0,0,0,-0.8111,-0.8111,0,-0.8071,-0.8071,-0.807,-0.8054,-0.8054,-0.8054,-0.8055,-0.8009,-0.8008,-0.8007,0,0,0,0,0,0,0,0,0,0,0,0,0,-0.817,-0.8169,-0.8111,-0.8111,-0.811,-0.8071,-0.8071,-0.807,-0.8054,-0.8054,-0.8054,-0.8055,-0.801,-0.8008,-0.8007,0,0,0,0,0,0,0,0,0,0,0,0,0,-0.8139,-0.8169,-0.8111,-0.8098,-0.8096,-0.8071,-0.8071,-0.807,-0.8054,-0.8054,-0.8054,-0.8055,-0.801,-0.8008,-0.8006,-0.7991,0,0,-0.8,-0.7999,0,0,0,0,0,0,0,0,-0.8141,-0.8137,-0.81,-0.8099,-0.8097,-0.8068,-0.8075,-0.8043,-0.8054,-0.807,-0.8055,-0.8055,-0.8028,-0.8025,-0.8017,-0.7989,-0.7987,-0.8,-0.7999,-0.7998,-0.7998,0,0,0,0,0,0,0,-0.8143,-0.8138,-0.8095,-0.81,-0.8098,-0.8092,-0.8088,-0.8069,-0.8049,-0.8069,-0.8067,-0.8063,-0.8027,-0.8019,-0.8016,-0.7986,-0.8,-0.7998,-0.7997,-0.7996,-0.7942,-0.7942,0,0,0,0,0,0,-0.8148,-0.814,-0.8097,-0.8094,-0.812,-0.8091,-0.8086,-0.8077,-0.8049,-0.8045,-0.8063,-0.8062,-0.8022,-0.8018,-0.8014,-0.7994,-0.7998,-0.7996,-0.7995,-0.7943,-0.7942,-0.7942,0,0,0,0,0,0,-0.8149,-0.8144,-0.8098,-0.8117,-0.8111,-0.809,-0.808,-0.8076,-0.8068,-0.8045,-0.804,-0.8058,-0.8022,-0.8017,-0.7997,-0.7992,-0.7995,-0.7994,-0.7943,-0.7942,-0.7942,-0.7953,0,0,0,0,0,0,-0.8151,-0.8145,-0.814,-0.8117,-0.811,-0.8083,-0.8079,-0.8075,-0.8065,-0.8064,-0.8039,-0.8035,-0.8022,-0.8,-0.7995,-0.7989,-0.7992,-0.7943,-0.7943,-0.7942,-0.7953,-0.7953,-0.7953,0,0,0,0,0,-0.8153,-0.8143,-0.8139,-0.8134,-0.8103,-0.8083,-0.8078,-0.8065,-0.8064,-0.8058,-0.8044,-0.8036,-0.7993,-0.7998,-0.7992,-0.7986,-0.7943,-0.7943,-0.7942,-0.7953,-0.7953,-0.7953,0,0,0,0,0,0,-0.8165,-0.814,-0.8135,-0.8119,-0.8103,-0.808,-0.8072,-0.8065,-0.8049,-0.8048,-0.803,-0.8025,-0.8006,-0.7994,-0.8,-0.7969,-0.7968,-0.7966,-0.7978,-0.7978,-0.7978,-0.7981,-0.799,0,0,0,0,0,-0.8166,-0.8153,-0.8131,-0.8118,-0.8111,-0.8093,-0.8084,-0.8074,-0.8057,-0.805,-0.8034,-0.8016,-0.7999,-0.7987,-0.797,-0.7951,-0.7945,-0.7944,-0.7944,-0.7944,-0.7943,-0.7931,-0.793,-0.794,-0.794,-0.794,0,0,-0.8167,-0.8152,-0.8144,-0.812,-0.8107,-0.8093,-0.8087,-0.8072,-0.8061,-0.8047,-0.8028,-0.8015,-0.7994,-0.7975,-0.7965,-0.7964,-0.7939,-0.7943,-0.7944,-0.7942,-0.793,-0.7929,-0.7928,-0.794,-0.794,-0.794,0,0,-0.8161,-0.8149,-0.8137,-0.8124,-0.8105,-0.8093,-0.809,-0.8068,-0.806,-0.804,-0.8029,-0.8015,-0.7986,-0.7971,-0.796,-0.7949,-0.7941,-0.7943,-0.7943,-0.7932,-0.7932,-0.7931,-0.7926,-0.7925,-0.7942,-0.7942,-0.7942,0,-0.8165,-0.8144,-0.8131,-0.8117,-0.8106,-0.8094,-0.8081,-0.8069,-0.8044,-0.8036,-0.8036,-0.7998,-0.7983,-0.796,-0.7957,-0.7949,-0.7944,-0.7946,-0.7933,-0.7932,-0.7931,-0.7926,-0.7925,-0.7943,-0.7943,-0.7942,-0.7942,0,-0.8149,-0.8135,-0.8127,-0.8105,-0.8093,-0.808,-0.8063,-0.8053,-0.8044,-0.8032,-0.8012,-0.7994,-0.7972,-0.7966,-0.7957,-0.7941,-0.7941,-0.7937,-0.7935,-0.7931,-0.7926,-0.7924,-0.7943,-0.7943,-0.7943,-0.7943,0,0,-0.815,-0.8121,-0.8119,-0.8108,-0.8086,-0.8074,-0.8059,-0.804,-0.8031,-0.8014,-0.8,-0.7976,-0.7972,-0.7959,-0.7949,-0.7939,-0.7931,-0.7936,-0.7935,-0.7935,-0.7911,-0.7914,-0.7912,-0.7925,-0.7925,-0.7925,-0.7912,0,-0.8141,-0.8116,-0.8104,-0.8083,-0.8069,-0.8057,-0.8044,-0.8028,-0.8017,-0.8002,-0.7988,-0.7971,-0.7967,-0.7959,-0.7949,-0.7934,-0.7925,-0.7935,-0.7911,-0.791,-0.7917,-0.791,-0.7913,-0.7902,-0.7911,-0.791,-0.791,0,-0.8128,-0.8113,-0.8091,-0.8071,-0.8064,-0.8053,-0.8034,-0.802,-0.8002,-0.7993,-0.7979,-0.7969,-0.7952,-0.7952,-0.7926,-0.7933,-0.7923,-0.7913,-0.7913,-0.7909,-0.791,-0.7906,-0.7899,-0.7897,-0.7907,-0.7907,-0.7908,0,-0.8131,-0.8105,-0.8088,-0.808,-0.8055,-0.8047,-0.8036,-0.8018,-0.8007,-0.799,-0.7982,-0.7963,-0.7952,-0.7936,-0.792,-0.7922,-0.7897,-0.7895,-0.7888,-0.7889,-0.7883,-0.7884,-0.7874,-0.7877,-0.7877,-0.7877,-0.7877,0,-0.8122,-0.8109,-0.8089,-0.8079,-0.8064,-0.8049,-0.8034,-0.8022,-0.8006,-0.7992,-0.798,-0.7967,-0.7947,-0.7931,-0.7919,-0.7899,-0.7895,-0.7887,-0.7883,-0.7888,-0.7888,-0.788,-0.788,-0.7877,-0.7877,-0.7877,-0.7877,0,-0.8122,-0.8108,-0.809,-0.8068,-0.8062,-0.8052,-0.8033,-0.8022,-0.801,-0.7992,-0.7987,-0.7967,-0.7948,-0.7931,-0.7905,-0.7896,-0.7876,-0.7873,-0.7883,-0.7881,-0.7875,-0.7876,-0.7859,-0.7856,-0.7862,-0.7862,-0.7862,0,-0.8118,-0.8108,-0.8086,-0.8076,-0.8066,-0.8051,-0.804,-0.8025,-0.8013,-0.7991,-0.7982,-0.7963,-0.7946,-0.7915,-0.7898,-0.7877,-0.7873,-0.7868,-0.7869,-0.7874,-0.7872,-0.7873,-0.7871,-0.7868,-0.7868,-0.7868,-0.7868,0,-0.8111,-0.8105,-0.809,-0.8073,-0.806,-0.8045,-0.803,-0.8023,-0.8004,-0.7992,-0.7973,-0.796,-0.7934,-0.7914,-0.7892,-0.7879,-0.787,-0.7868,-0.7865,-0.7869,-0.7876,-0.7871,-0.7883,-0.7868,-0.7868,-0.7868,-0.7868,-0.7868,-0.8109,-0.8099,-0.8082,-0.8066,-0.8053,-0.8039,-0.8027,-0.8014,-0.7998,-0.7977,-0.7968,-0.7949,-0.7929,-0.7899,-0.7886,-0.7869,-0.7868,-0.7864,-0.7863,-0.7862,-0.7862,-0.7879,-0.7865,-0.7865,-0.7865,-0.7865,-0.7865,0,-0.8101,-0.809,-0.8075,-0.8055,-0.8041,-0.8036,-0.8018,-0.8007,-0.799,-0.7974,-0.7958,-0.7935,-0.7916,-0.7897,-0.7876,-0.7866,-0.7861,-0.7861,-0.7861,-0.7858,-0.7865,-0.787,-0.7865,-0.7865,-0.7865,-0.7865,-0.7865,-0.7865,-0.8096,-0.8079,-0.8071,-0.8047,-0.8035,-0.8017,-0.8007,-0.7994,-0.798,-0.7956,-0.7941,-0.7929,-0.791,-0.7888,-0.7869,-0.7864,-0.7857,-0.7857,-0.7851,-0.7858,-0.7858,-0.7858,-0.7862,-0.7856,-0.7856,-0.7845,-0.7845,-0.7845]},{"header":{"parameterUnit":"m.s-1","parameterCategory":1,"la1":30.2991,"la2":30.254,"lo1":-89.0895,"lo2":-89.0444,"dy":0.0017,"dx":0.0017,"nx":28,"ny":28,"refTime":"2024-08-27T09:00:00:Z","depth":0,"parameterNumber":3,"parameterNumberName":"V-component_of_WINDS"},"data":[0,0,0,0,0,0,0,0,0,0,0,0,0,0,0,0,0,0,0,0,0,0,0,0,0,0,0,0,0,0,0,0,0,0,0,0,0,0,0,0,0,0,0,0,0,0,0,0,0,0,0,0,0,0,0,0,0,0,4.0756,4.0756,0,4.0711,4.071,4.0709,4.0666,4.0666,4.0665,4.0665,4.0616,4.0615,4.0614,0,0,0,0,0,0,0,0,0,0,0,0,0,4.0804,4.0803,4.0756,4.0756,4.0755,4.0711,4.071,4.0709,4.0666,4.0666,4.0665,4.0664,4.0616,4.0615,4.0614,0,0,0,0,0,0,0,0,0,0,0,0,0,4.0773,4.0803,4.0756,4.0728,4.0725,4.0711,4.071,4.0709,4.0666,4.0666,4.0665,4.0664,4.0616,4.0615,4.0614,4.0623,0,0,4.0611,4.061,0,0,0,0,0,0,0,0,4.0775,4.0771,4.0733,4.073,4.0727,4.0693,4.0709,4.068,4.0667,4.0689,4.0665,4.0664,4.0642,4.0639,4.0632,4.0621,4.0619,4.061,4.061,4.0609,4.0609,0,0,0,0,0,0,0,4.0777,4.0773,4.0738,4.0733,4.0729,4.0717,4.0712,4.0703,4.0671,4.0687,4.0684,4.0679,4.064,4.0633,4.0631,4.0618,4.061,4.0609,4.0609,4.0608,4.0609,4.061,0,0,0,0,0,0,4.0784,4.0775,4.074,4.0737,4.0749,4.0717,4.0711,4.0705,4.0671,4.0665,4.068,4.0677,4.0636,4.0632,4.0629,4.0635,4.0609,4.0608,4.0607,4.0608,4.0609,4.061,0,0,0,0,0,0,4.0785,4.0781,4.0741,4.0755,4.0749,4.0717,4.071,4.0704,4.0697,4.0665,4.0659,4.0678,4.0635,4.063,4.0624,4.0633,4.0608,4.0606,4.0607,4.0609,4.061,4.0649,0,0,0,0,0,0,4.0786,4.0782,4.0785,4.0755,4.0749,4.0739,4.0711,4.0704,4.0696,4.0692,4.0662,4.0657,4.0634,4.0626,4.0623,4.0631,4.0606,4.0606,4.0608,4.0609,4.0647,4.0652,4.0656,0,0,0,0,0,4.0788,4.0799,4.0786,4.0782,4.0753,4.074,4.0736,4.071,4.0697,4.0699,4.0678,4.0658,4.0633,4.0626,4.0622,4.063,4.0606,4.0608,4.0609,4.0645,4.0651,4.0656,0,0,0,0,0,0,4.083,4.0794,4.078,4.0781,4.0764,4.0732,4.0735,4.0717,4.0702,4.0699,4.0667,4.0661,4.0658,4.0643,4.0637,4.0635,4.0616,4.0617,4.0645,4.065,4.0654,4.0658,4.0605,0,0,0,0,0,4.084,4.0833,4.0801,4.0805,4.0797,4.0768,4.0761,4.0743,4.0723,4.0716,4.0694,4.0676,4.0663,4.0656,4.0643,4.0645,4.0637,4.0648,4.0652,4.0656,4.0657,4.0655,4.0659,4.0615,4.0615,4.0615,0,0,4.0859,4.0838,4.0836,4.0813,4.0797,4.079,4.0762,4.0756,4.0749,4.0714,4.0707,4.0691,4.0668,4.0665,4.0663,4.0653,4.0667,4.0658,4.0661,4.066,4.0657,4.0661,4.0664,4.0617,4.0616,4.0616,0,0,4.089,4.0874,4.0875,4.086,4.0837,4.0817,4.0817,4.0789,4.0776,4.0769,4.0742,4.0733,4.0713,4.0697,4.0687,4.071,4.069,4.0707,4.0729,4.0727,4.073,4.0733,4.074,4.0743,4.0708,4.0708,4.0708,0,4.0916,4.0905,4.0878,4.0872,4.0862,4.0831,4.083,4.0817,4.0791,4.0784,4.0773,4.0746,4.0728,4.0721,4.0726,4.0719,4.0717,4.071,4.0732,4.0735,4.0737,4.0743,4.0746,4.071,4.071,4.071,4.071,0,4.0938,4.093,4.0934,4.0909,4.0899,4.0897,4.0868,4.0861,4.0843,4.0824,4.0816,4.0793,4.0774,4.0771,4.0754,4.0761,4.0755,4.0739,4.0719,4.0744,4.0749,4.0751,4.0713,4.0713,4.0712,4.0711,0,0,4.0994,4.0954,4.0956,4.0944,4.0915,4.0908,4.0903,4.0885,4.088,4.0862,4.0856,4.0839,4.0824,4.0811,4.0792,4.079,4.0808,4.0774,4.0773,4.078,4.0812,4.0824,4.0828,4.0795,4.0795,4.0795,4.0814,0,4.102,4.101,4.0985,4.0983,4.0974,4.0943,4.0939,4.092,4.0902,4.0891,4.087,4.0858,4.0839,4.0832,4.0829,4.0807,4.0814,4.0805,4.0787,4.0787,4.0794,4.0831,4.0843,4.0862,4.0816,4.0816,4.0817,0,4.1048,4.1033,4.103,4.1001,4.0996,4.0993,4.0973,4.0964,4.0942,4.0928,4.0914,4.0892,4.0883,4.0865,4.0852,4.0847,4.0838,4.0825,4.0825,4.0822,4.0803,4.0827,4.0868,4.087,4.082,4.0819,4.0819,0,4.1088,4.1067,4.1062,4.1053,4.1019,4.1017,4.1002,4.0979,4.0969,4.0952,4.0945,4.0927,4.0916,4.0902,4.0875,4.0864,4.0864,4.0844,4.0851,4.0852,4.0852,4.0852,4.0891,4.0848,4.0848,4.0848,4.0848,0,4.1119,4.1118,4.1079,4.1076,4.1074,4.1044,4.1042,4.1024,4.1004,4.0995,4.0967,4.096,4.0925,4.0913,4.0891,4.0883,4.0878,4.0866,4.086,4.0868,4.087,4.0862,4.0859,4.0849,4.0849,4.0848,4.0848,0,4.1163,4.1137,4.113,4.1098,4.109,4.1089,4.1061,4.1056,4.1036,4.1026,4.1022,4.099,4.0974,4.0945,4.0922,4.0907,4.0902,4.0893,4.091,4.0906,4.0915,4.0914,4.0948,4.0951,4.0908,4.0908,4.0909,0,4.1184,4.1182,4.1151,4.1143,4.113,4.1119,4.1109,4.1079,4.1069,4.1043,4.1041,4.1023,4.1007,4.0983,4.0957,4.0938,4.0927,4.094,4.0924,4.0931,4.0925,4.0925,4.0924,4.0944,4.0944,4.0945,4.0945,0,4.1223,4.121,4.1197,4.1179,4.1168,4.1152,4.1135,4.1131,4.1096,4.1086,4.107,4.1058,4.1033,4.1015,4.0992,4.0976,4.0954,4.0951,4.0951,4.0959,4.0968,4.0962,4.0919,4.095,4.0949,4.0949,4.0949,4.0949,4.1255,4.1252,4.1229,4.1215,4.1199,4.1183,4.1176,4.1155,4.1142,4.112,4.1103,4.1087,4.1063,4.103,4.1014,4.1001,4.0991,4.0992,4.0992,4.0992,4.0995,4.0971,4.0997,4.0996,4.0996,4.0996,4.0996,0,4.1292,4.1276,4.1263,4.124,4.1228,4.121,4.1189,4.1181,4.1168,4.1147,4.1132,4.1113,4.1095,4.1067,4.1046,4.104,4.103,4.1036,4.1036,4.1032,4.1006,4.1007,4.1045,4.1045,4.1045,4.1045,4.1045,4.1045,4.131,4.1303,4.1287,4.1271,4.1254,4.124,4.123,4.1214,4.1198,4.1177,4.1163,4.1145,4.112,4.1097,4.1079,4.1071,4.1064,4.1073,4.1062,4.1038,4.1034,4.1029,4.103,4.1073,4.1073,4.1089,4.1089,4.1089]}]]